カタログに戻る

HORUS 2

運用中軍事SSO
NORAD 55844·PAYLOAD·🇪🇬 Egypt

打ち上げ Mar 13, 2023 から Jiuquan Satellite Launch Center

Loading…

次のパス (今後24時間)

TLE

最新Source: Space-Track

元期: Sep 14, 2026, 15:35 UTC

1 55844U 23032A   26257.64981009  .00004094  00000-0  17428-3 0  9997
2 55844  97.3463 331.2196 0002721 101.3026 258.8517 15.23540704195103

AllMySatでHORUS 2をリアルタイム追跡

Download on the App Store